FENGYUN 1C DEB, 31148

Orbit data source: Space-Track

FENGYUN 1C DEB, 31148 is space debris in SSO originally from a launch on Mon, 10 May 1999 UTC launched from the Taiyaun Space Center, China (TSC). Fengyun 1C debris stems from the Chinese weather satellite Fengyun-1C, which was intentionally destroyed by a Chinese anti-satellite missile in 2007. This event dramatically increased the amount of space debris, with thousands of trackable fragments posing hazards to satellites and human spaceflight. The Fengyun 1C debris cloud has become a focal point in discussions about space sustainability and the need for international regulations to prevent the creation of new debris.

Loading next visibility...
Identifier
31148, 1999-025BHA
Orbit
SSO
Country
Flag of CNCN / PRC
Related business
Manufacturer
Unknown
Mission
Spacecraft
Bus & Motor
Unknown
Mass
Unknown
Launch date (UTC)
1999-05-10 (27 years ago)
Launch vehicle
Unknown
Launch site
Taiyaun Space Center, China (TSC)
Object type
Payload
Rocket body
Debris
Shape & HBR
Unknown shape, 0.1 m
Radar Cross Section
Small (<0.1 m²)

Expand to show TLE details & history
Last TLE update: 4 days ago

TLE from 4 days ago
0 FENGYUN 1C DEB
1 31148U 99025BHA 26165.46171908  .00001761  00000-0  47215-3 0  9995
2 31148  98.8525  63.6220 0131943 222.5758 136.5144 14.44536571  1316
Epoch: 2026-06-14T11:04Z
TLE epoch observation values (Epoch: 2026-06-14T11:04:52.528Z)
Latitude
-0°
Longitude
-5.35899°
Altitude
815.261 km
Speed
7.41 km/s
True Right ascension
04h 14m 29s
True Declination
0° 00' 00"
Sunlit
Object was in daylight at epoch
Visualization orbit readout
Latitude
Unknown
Longitude
Unknown
Altitude
Unknown
Speed
Unknown
Apparent Right ascension
Unknown
Apparent Declination
Unknown
Sunlit
N/A
Visualization observer readout
Local Sidereal Time
07:07:00
Azimuth
Unknown
Elevation
Unknown
Doppler factor
Unknown
Orbital elements
Apogee altitude
834.609 km
Perigee altitude
646.753 km
Semi-major axis
7,118.818 km
Eccentricity
0.01319
Inclination
98.8525°
RAAN
63.622°
Arg. of periapsis
222.5758°
True anomaly
137.54252°
Mean anomaly
136.5144°
Eccentric anomaly
137.02969°
Mean motion
3.61353 °/min
Orbital period
99.63 mins
BSTAR
0.00047215
Loading maneuver chart data...
Computing Atmospheric mass density...
Loading historical data...
Loading historical data...
Loading historical data...
Loading historical data...
Loading historical data...
Loading historical data...
Loading historical data...

Documentation

Showing up to 5 results
|